Home > Weather > Currie > Past weeks

Flag for Australia Past Weather in Currie, Tasmania, Australia — Yesterday and Last 2 Weeks

Now
58 °F

Passing clouds.


Feels Like: 55 °F
Forecast: 55 / 60 °F
Wind: 14 mph from Northeast

Location: King Island Airport

Current Time: May 31, 2016 at 3:55:27 PM

Latest Report: May 31, 2016 at 3:00 PM


Visibility: N/A

Pressure: 30.37 "Hg

Humidity: 73%

Dew Point: 49 °F

Location of CurrieLocation

Past Weather in Currie — Graph

°F

Currie Temperature Yesterday

Maximum temperature yesterday: 57 °F (at 2:00 PM)
Minimum temperature yesterday: 44 °F (at 3:00 AM)
Average temperature yesterday: 49 °F

High & Low Weather Summary for the Past Weeks

 TemperatureHumidityPressure
High64 °F (May 22, 12:00 PM)99% (May 25, 7:00 PM)30.42 "Hg (May 25, 7:00 PM)
Low41 °F (May 24, 11:00 PM)55% (May 20, 12:00 AM)29.62 "Hg (May 26, 2:00 PM)
Average54 °F79%29.96 "Hg
* Reported May 16 2:00 PM — May 31 2:00 PM, Currie, Weather by CustomWeather, © 2016

Note: Actual official high and low records may vary slightly from our data, if they occured in-between our weather recording intervals... More about our weather records

Advertising

Currie Weather History for the Previous 24 Hours

Scroll right to see more
 ConditionsComfort  
Time TempWeatherWind HumidityBarometerVisibility
2:00 PM
Tue, May 31
58 °FCool.15 mph71%30.38 "HgN/A
1:00 PM58 °FCool.15 mph72%30.38 "HgN/A
12:00 PM58 °FPassing clouds.17 mph73%30.40 "HgN/A
11:00 AM56 °FCool.16 mph77%30.42 "HgN/A
10:00 AM56 °FCool.14 mph81%30.42 "HgN/A
9:00 AM53 °FPassing clouds.8 mph93%30.42 "HgN/A
8:00 AM49 °FCool.9 mph98%30.41 "HgN/A
7:00 AM46 °FCool.8 mph97%30.40 "HgN/A
6:00 AM47 °FRain showers. Overcast.7 mph97%30.39 "HgN/A
5:00 AM44 °FQuite cool.7 mph97%30.38 "HgN/A
4:00 AM44 °FQuite cool.7 mph96%30.38 "HgN/A
3:00 AM43 °FPassing clouds.6 mph94%30.38 "HgN/A
2:00 AM44 °FQuite cool.5 mph90%30.39 "HgN/A
1:00 AM46 °FCool.7 mph89%30.39 "HgN/A
12:00 AM47 °FOvercast.6 mph89%30.40 "HgN/A
11:00 PM
Mon, May 30
46 °FCool.5 mph87%30.40 "HgN/A
9:00 PM45 °FCool.5 mph82%30.38 "HgN/A
8:00 PM46 °FCool.3 mph82%30.37 "HgN/A
7:00 PM48 °FCool.3 mph72%30.36 "HgN/A
6:00 PM51 °FOvercast.7 mph74%30.35 "HgN/A
5:00 PM51 °FCool.7 mph77%30.33 "HgN/A
4:00 PM51 °FCool.8 mph73%30.32 "HgN/A
3:00 PM55 °FScattered clouds.3 mph62%30.31 "HgN/A
Weather by CustomWeather, © 2016

See weather overviewHow to use our weather pages